Beaufort, NC

12:52 AM EST on December 14, 2019 (GMT -0500)
Smith

Weather History for KMRH - October, 2019

Change the Weather History Date:

Sunday, October 27, 2019

  Actual Average Record
Temperature  
Mean Temperature 78 °F -  
Max Temperature 81 °F 72 °F 84 °F (1984)
Min Temperature 75 °F 52 °F 30 °F (1962)
Cooling Degree Days 13    
Growing Degree Days 28 (Base 50)    
Moisture  
Dew Point 75 °F    
Average Humidity 92    
Maximum Humidity 100    
Minimum Humidity 85    
Precipitation  
Precipitation 0.06 in - - ()
Sea Level Pressure  
Sea Level Pressure 29.94 in    
Wind  
Wind Speed 12 mph (SSW)    
Max Wind Speed 20 mph    
Max Gust Speed 25 mph    
Visibility 9 miles    
Events Rain    
Averages and records for this station are not official NWS values.
T = Trace of Precipitation, MM = Missing Value Source: NWS Daily Summary

Daily Weather History Graph

Daily Weather History Graph

Search for Another Location

Airport or City:

Astronomy

Oct. 27, 2019 Rise Set
Actual Time 7:22 AM EDT 6:18 PM EDT
Civil Twilight 6:56 AM EDT 6:43 PM EDT
Nautical Twilight 6:26 AM EDT 7:13 PM EDT
Astronomical Twilight 5:57 AM EDT 7:42 PM EDT
Moon 6:32 AM EDT (10/27) 6:23 PM EDT (10/27)
Length of Visible Light 11h 47m
Length of Day
10h 55m
Waning Crescent, 0% of the Moon is Illuminated
Oct 27
Waning Crescent
Oct 27
New
Nov 4
First Quarter
Nov 12
Full
Nov 19
Last Quarter

Hourly Weather History & Observations

Time (EDT) Temp. Heat Index Dew Point Humidity Pressure Visibility Wind Dir Wind Speed Gust Speed Precip Events Conditions
12:58 AM 75.0 °F - 71.1 °F 87% 30.03 in 10.0 mi SE 9.2 mph - N/A   Clear
1:58 AM 75.0 °F - 72.0 °F 90% 30.01 in 10.0 mi SSE 9.2 mph - N/A   Clear
2:58 AM 75.0 °F - 72.0 °F 90% 29.99 in 10.0 mi SE 12.7 mph - N/A   Overcast
3:58 AM 75.9 °F - 73.0 °F 91% 29.96 in 10.0 mi SE 13.8 mph 20.7 mph N/A   Mostly Cloudy
4:58 AM 75.9 °F - 73.9 °F 94% 29.95 in 9.0 mi SSE 13.8 mph - 0.00 in Rain Light Rain
5:58 AM 75.9 °F - 73.9 °F 94% 29.94 in 10.0 mi SSE 12.7 mph 19.6 mph 0.00 in   Scattered Clouds
6:58 AM 75.9 °F - 73.9 °F 94% 29.94 in 10.0 mi South 10.4 mph - N/A   Mostly Cloudy
7:58 AM 77.0 °F - 73.9 °F 90% 29.94 in 6.0 mi South 15.0 mph - 0.01 in Rain Light Rain
8:06 AM 77.0 °F - 75.0 °F 94% 29.94 in 10.0 mi South 13.8 mph - 0.00 in   Mostly Cloudy
8:58 AM 77.0 °F - 73.9 °F 90% 29.94 in 10.0 mi South 12.7 mph - 0.00 in   Mostly Cloudy
9:58 AM 75.9 °F - 75.0 °F 97% 29.95 in 6.0 mi SSW 13.8 mph - 0.01 in Rain Light Rain
10:28 AM 75.9 °F - 75.9 °F 100% 29.95 in 5.0 mi SSW 8.1 mph - 0.03 in Rain Light Rain
10:58 AM 77.0 °F - 75.9 °F 96% 29.95 in 9.0 mi South 13.8 mph - 0.04 in Rain Light Rain
11:13 AM 77.0 °F - 75.0 °F 94% 29.96 in 9.0 mi SSW 13.8 mph - 0.00 in   Overcast
11:58 AM 81.0 °F 87.9 °F 77.0 °F 88% 29.95 in 10.0 mi SSW 19.6 mph 24.2 mph 0.00 in   Overcast
12:11 PM 79.0 °F - 75.0 °F 88% 29.94 in 10.0 mi SSW 18.4 mph 25.3 mph N/A   Scattered Clouds
12:58 PM 80.1 °F 85.4 °F 75.9 °F 87% 29.94 in 10.0 mi SSW 15.0 mph - N/A   Clear
1:22 PM 79.0 °F - 75.0 °F 88% 29.92 in 10.0 mi SSW 17.3 mph - N/A   Mostly Cloudy
1:58 PM 81.0 °F 87.3 °F 75.9 °F 85% 29.91 in 10.0 mi SSW 13.8 mph - N/A   Overcast
2:58 PM 80.1 °F 85.4 °F 75.9 °F 87% 29.90 in 10.0 mi SSW 15.0 mph - N/A   Overcast
3:15 PM 81.0 °F 87.3 °F 75.9 °F 85% 29.90 in 10.0 mi SSW 16.1 mph - N/A   Scattered Clouds
3:58 PM 78.1 °F - 75.0 °F 90% 29.90 in 10.0 mi SSW 15.0 mph - N/A   Partly Cloudy
4:58 PM 78.1 °F - 75.0 °F 90% 29.90 in 10.0 mi SSW 18.4 mph 24.2 mph N/A   Overcast
5:58 PM 77.0 °F - 75.0 °F 94% 29.92 in 8.0 mi SW 12.7 mph - N/A   Mostly Cloudy
6:58 PM 77.0 °F - 75.0 °F 94% 29.92 in 7.0 mi SSW 11.5 mph - 0.00 in Rain Light Rain
7:58 PM 75.9 °F - 75.0 °F 97% 29.93 in 9.0 mi SW 11.5 mph - 0.00 in   Overcast
8:06 PM 75.9 °F - 75.0 °F 97% 29.93 in 9.0 mi SW 9.2 mph - N/A   Overcast
8:58 PM 75.9 °F - 73.9 °F 94% 29.94 in 9.0 mi SW 10.4 mph - N/A   Overcast
9:58 PM 75.9 °F - 73.9 °F 94% 29.96 in 9.0 mi SW 11.5 mph - N/A   Overcast
10:58 PM 75.9 °F - 73.9 °F 94% 29.97 in 7.0 mi SW 8.1 mph - N/A   Overcast
11:07 PM 75.0 °F - 73.9 °F 96% 29.96 in 7.0 mi WSW 10.4 mph - N/A   Overcast
11:58 PM 75.0 °F - 73.9 °F 96% 29.97 in 6.0 mi WSW 6.9 mph - N/A   Overcast